User: anonymous   Login
Location: Newark
(48.4472°N, 1.4892°E)
Time: 21:50:31
(UTC+00:00)
Language:

A-11 Canister half - Orbit

View from above orbital plane
View from above orbital plane
View from above satellite
View from above satellite

Ground track
Ground track

The orbit data is extracted from the following two-line orbital elements,

1    51U 60009C   19323.90778602 -.00000116 +00000-0 -30664-3 0  9990
2    51 047.2130 278.7906 0107342 258.4993 100.3726 12.18274905638422
Epoch (UTC): 19 November 2019 21:47:12
Eccentricity: 0.0107342
inclination: 47.2130°
perigee height: 1514 km
apogee height: 1685 km
right ascension of ascending node: 278.7906°
argument of perigee: 258.4993°
revolutions per day: 12.18274905
mean anomaly at epoch: 100.3726°
orbit number at epoch: 63842

The dashed part of the orbit path shows where the satellite is in the earth's shadow,  

DLR